When you browse on this site, cookies collect data to enhance your experience and personalize the content and advertising you see.
Visit our Privacy Policy to learn more. By continuing to use the site, you agree to this use of cookies and data.
  • In Portugal
  • List of Countries
  • For 7 days
  • Water Temperature
  • Weather Map
  • Weather Widgets
  • user-avatar
    Login

    Hourly Weather Al-Budajji

    Today, 9 December, Monday

    Time Temperature Precipitation Wind Pressure Humidity
    00:00 +27°C° 0.1 mm 4 mps 765 mmHg 67%
    01:00 +27°C° 0.1 mm 4 mps 765 mmHg 67%
    02:00 +27°C° 0.1 mm 4 mps 764 mmHg 66%
    03:00 +27°C° 0.1 mm 4 mps 764 mmHg 64%
    04:00 +27°C° 0.1 mm 4 mps 764 mmHg 63%
    05:00 +27°C° 0.1 mm 4 mps 764 mmHg 63%
    06:00 +27°C° 0.1 mm 4 mps 765 mmHg 63%
    07:00 +27°C° 0.1 mm 4 mps 765 mmHg 62%
    08:00 +27°C° 0.5 mm 3 mps 765 mmHg 62%
    09:00 +27°C° 0.5 mm 3 mps 765 mmHg 62%
    10:00 +27°C° 0.5 mm 2 mps 766 mmHg 62%
    11:00 +27°C° 0 mm 2 mps 765 mmHg 61%
    12:00 +27°C° 0 mm 2 mps 765 mmHg 60%
    13:00 +27°C° 0 mm 2 mps 765 mmHg 59%
    14:00 +27°C° 0 mm 2 mps 764 mmHg 60%
    15:00 +27°C° 0 mm 2 mps 764 mmHg 61%
    16:00 +27°C° 0 mm 2 mps 763 mmHg 61%
    17:00 +27°C° 0 mm 3 mps 764 mmHg 64%
    18:00 +27°C° 0 mm 4 mps 764 mmHg 67%
    19:00 +26°C° 0 mm 5 mps 765 mmHg 70%
    20:00 +26°C° 0 mm 5 mps 765 mmHg 72%
    21:00 +26°C° 0 mm 6 mps 765 mmHg 74%
    22:00 +26°C° 0 mm 6 mps 765 mmHg 76%
    23:00 +26°C° 0.2 mm 6 mps 765 mmHg 76%

    Tomorrow, 10 December, Tuesday

    Time Temperature Precipitation Wind Pressure Humidity
    00:00 +26°C° 0.2 mm 6 mps 765 mmHg 76%
    01:00 +24°C° 0.2 mm 6 mps 765 mmHg 77%
    02:00 +26°C° 0.3 mm 5 mps 765 mmHg 75%
    03:00 +26°C° 0.3 mm 4 mps 764 mmHg 74%
    04:00 +26°C° 0.3 mm 4 mps 764 mmHg 72%
    05:00 +26°C° 0.3 mm 4 mps 764 mmHg 73%
    06:00 +26°C° 0.3 mm 4 mps 765 mmHg 73%
    07:00 +26°C° 0.3 mm 3 mps 765 mmHg 74%
    08:00 +25°C° 0.6 mm 4 mps 765 mmHg 74%
    09:00 +25°C° 0.6 mm 4 mps 765 mmHg 74%
    10:00 +25°C° 0.6 mm 4 mps 766 mmHg 74%
    11:00 +25°C° 0.4 mm 4 mps 765 mmHg 74%
    12:00 +26°C° 0.4 mm 4 mps 765 mmHg 73%
    13:00 +26°C° 0.4 mm 4 mps 764 mmHg 72%
    14:00 +26°C° 0.5 mm 3 mps 764 mmHg 72%
    15:00 +26°C° 0.5 mm 3 mps 763 mmHg 73%
    16:00 +26°C° 0.5 mm 3 mps 763 mmHg 73%
    17:00 +26°C° 0.4 mm 3 mps 763 mmHg 73%
    18:00 +26°C° 0.4 mm 4 mps 763 mmHg 74%
    19:00 +26°C° 0.4 mm 4 mps 764 mmHg 74%
    20:00 +26°C° 0.1 mm 4 mps 764 mmHg 76%
    21:00 +26°C° 0.1 mm 5 mps 764 mmHg 78%
    22:00 +26°C° 0.1 mm 6 mps 764 mmHg 79%
    23:00 +25°C° 0.5 mm 5 mps 764 mmHg 80%

    Day after tomorrow, 11 December, Wednesday

    Time Temperature Precipitation Wind Pressure Humidity
    00:00 +25°C° 0.5 mm 4 mps 763 mmHg 80%
    01:00 +25°C° 0.5 mm 4 mps 763 mmHg 80%
    02:00 +25°C° 0.2 mm 3 mps 763 mmHg 80%
    03:00 +25°C° 0.2 mm 3 mps 763 mmHg 80%
    04:00 +25°C° 0.2 mm 3 mps 763 mmHg 80%
    05:00 +25°C° 0.1 mm 3 mps 763 mmHg 80%
    06:00 +25°C° 0.1 mm 3 mps 763 mmHg 80%
    07:00 +25°C° 0.1 mm 3 mps 764 mmHg 80%
    08:00 +26°C° 0.7 mm 3 mps 764 mmHg 80%
    09:00 +26°C° 0.7 mm 3 mps 764 mmHg 79%
    10:00 +26°C° 0.7 mm 3 mps 764 mmHg 79%
    11:00 +26°C° 0.3 mm 3 mps 764 mmHg 76%
    12:00 +26°C° 0.3 mm 3 mps 763 mmHg 73%
    13:00 +26°C° 0.3 mm 3 mps 763 mmHg 70%
    14:00 +26°C° 0 mm 4 mps 763 mmHg 72%
    15:00 +26°C° 0 mm 5 mps 762 mmHg 73%
    16:00 +26°C° 0 mm 5 mps 762 mmHg 75%
    17:00 +26°C° 0 mm 5 mps 762 mmHg 74%
    18:00 +26°C° 0 mm 6 mps 762 mmHg 74%
    19:00 +26°C° 0 mm 6 mps 763 mmHg 74%
    20:00 +26°C° 0 mm 6 mps 763 mmHg 74%
    21:00 +26°C° 0 mm 6 mps 763 mmHg 74%
    22:00 +26°C° 0 mm 7 mps 763 mmHg 73%
    23:00 +24°C° 0 mm 7 mps 763 mmHg 74%

    12 December, Thursday

    Time Temperature Precipitation Wind Pressure Humidity
    00:00 +24°C° 0 mm 7 mps 763 mmHg 74%
    01:00 +24°C° 0 mm 8 mps 762 mmHg 75%
    02:00 +24°C° 0 mm 8 mps 762 mmHg 75%
    03:00 +24°C° 0 mm 8 mps 762 mmHg 74%
    04:00 +24°C° 0 mm 8 mps 762 mmHg 74%
    05:00 +24°C° 0 mm 8 mps 762 mmHg 71%
    06:00 +24°C° 0 mm 8 mps 762 mmHg 69%
    07:00 +24°C° 0 mm 8 mps 763 mmHg 67%
    08:00 +24°C° 0 mm 8 mps 763 mmHg 64%
    09:00 +24°C° 0 mm 8 mps 763 mmHg 62%
    10:00 +26°C° 0 mm 8 mps 763 mmHg 60%
    11:00 +26°C° 0 mm 8 mps 763 mmHg 59%
    12:00 +26°C° 0 mm 7 mps 762 mmHg 59%
    13:00 +26°C° 0 mm 7 mps 762 mmHg 59%
    14:00 +26°C° 0 mm 7 mps 762 mmHg 59%
    15:00 +26°C° 0 mm 7 mps 761 mmHg 60%
    16:00 +26°C° 0 mm 7 mps 761 mmHg 61%
    17:00 +26°C° 0 mm 7 mps 761 mmHg 61%
    18:00 +26°C° 0 mm 7 mps 761 mmHg 61%
    19:00 +26°C° 0 mm 7 mps 762 mmHg 62%
    20:00 +26°C° 0 mm 6 mps 762 mmHg 60%
    21:00 +26°C° 0 mm 6 mps 762 mmHg 59%
    22:00 +26°C° 0 mm 5 mps 762 mmHg 58%
    23:00 +26°C° 0 mm 4 mps 762 mmHg 56%

    13 December, Friday

    Time Temperature Precipitation Wind Pressure Humidity
    00:00 +26°C° 0 mm 4 mps 761 mmHg 54%
    01:00 +26°C° 0 mm 3 mps 761 mmHg 52%
    02:00 +26°C° 0 mm 2 mps 761 mmHg 51%
    03:00 +26°C° 0 mm 1 mps 761 mmHg 50%
    04:00 +25°C° 0 mm 1 mps 760 mmHg 49%
    05:00 +26°C° 0 mm 1 mps 760 mmHg 50%
    06:00 +26°C° 0 mm 2 mps 760 mmHg 52%
    07:00 +26°C° 0 mm 3 mps 760 mmHg 54%
    08:00 +26°C° 0 mm 3 mps 761 mmHg 53%
    09:00 +26°C° 0 mm 2 mps 761 mmHg 51%
    10:00 +26°C° 0 mm 1 mps 762 mmHg 50%
    11:00 +26°C° 0.1 mm 1 mps 762 mmHg 52%
    12:00 +26°C° 0.1 mm 1 mps 762 mmHg 54%
    13:00 +25°C° 0.1 mm 1 mps 762 mmHg 56%
    14:00 +25°C° 0.2 mm 2 mps 761 mmHg 60%
    15:00 +24°C° 0.2 mm 3 mps 761 mmHg 64%
    16:00 +23°C° 0.2 mm 4 mps 761 mmHg 68%
    17:00 +23°C° 0 mm 4 mps 761 mmHg 69%
    18:00 +25°C° 0 mm 5 mps 761 mmHg 70%
    19:00 +25°C° 0 mm 5 mps 761 mmHg 71%
    20:00 +24°C° 0.1 mm 6 mps 762 mmHg 73%
    21:00 +24°C° 0.1 mm 6 mps 762 mmHg 75%
    22:00 +24°C° 0.1 mm 7 mps 762 mmHg 77%
    23:00 +24°C° 0 mm 6 mps 762 mmHg 77%

    14 December, Saturday

    Time Temperature Precipitation Wind Pressure Humidity
    00:00 +26°C° 0 mm 6 mps 762 mmHg 77%
    01:00 +26°C° 0 mm 5 mps 762 mmHg 77%
    02:00 +26°C° 0 mm 4 mps 762 mmHg 76%
    03:00 +26°C° 0 mm 3 mps 762 mmHg 75%
    04:00 +26°C° 0 mm 2 mps 762 mmHg 74%
    05:00 +26°C° 0.1 mm 2 mps 763 mmHg 74%
    06:00 +26°C° 0.1 mm 2 mps 763 mmHg 74%
    07:00 +25°C° 0.1 mm 2 mps 763 mmHg 74%
    08:00 +26°C° 0 mm 2 mps 764 mmHg 73%
    09:00 +26°C° 0 mm 2 mps 764 mmHg 73%
    10:00 +26°C° 0 mm 2 mps 765 mmHg 72%
    11:00 +26°C° 0 mm 2 mps 764 mmHg 72%
    12:00 +26°C° 0 mm 2 mps 764 mmHg 72%
    13:00 +26°C° 0 mm 2 mps 764 mmHg 73%
    14:00 +26°C° 0 mm 2 mps 763 mmHg 73%
    15:00 +26°C° 0 mm 2 mps 763 mmHg 73%
    16:00 +26°C° 0 mm 3 mps 763 mmHg 72%
    17:00 +26°C° 0 mm 3 mps 763 mmHg 72%
    18:00 +26°C° 0 mm 2 mps 763 mmHg 71%
    19:00 +26°C° 0 mm 2 mps 763 mmHg 71%
    20:00 +26°C° 0 mm 3 mps 763 mmHg 71%
    21:00 +26°C° 0 mm 3 mps 764 mmHg 71%
    22:00 +26°C° 0 mm 3 mps 764 mmHg 71%
    23:00 +26°C° 0 mm 3 mps 764 mmHg 71%
    Show more